sat.trackr.live / text

‹ back to catalog

STARLINK-35813

NORAD 66361 · 2025-254P

PAYLOAD ACTIVE UNKNOWN

§ Identity

Operator
Country
US
Launch date
2025-11-06
Launch site
AFWTR
Launch vehicle
Mass (kg)
RCS (m²)

Purposes: comms

External: N2YO · Heavens-Above · Gunter

§ Orbital elements

Epoch: 2026-05-24T23:47:42.753984Z

Period
94.01 min
Inclination
53.1594°
Eccentricity
0.0001376
Mean motion
15.31712924 rev/d
Perigee alt
469.8 km
Apogee alt
471.6 km
Semi-major
6,848.8 km
B*
6.4117e-4
RAAN
237.6225°
Arg perigee
93.5223°
Mean anomaly
266.5936°
Rev number
3,066

§ Raw data

STARLINK-358131 66361U 25254P   26144.99146706  .00019591  00000+0  64117-3 0  99952 66361  53.1594 237.6225 0001376  93.5223 266.5936 15.31712924 30666

JSON: /api/v1/satellites/66361 · /tle

For live sub-satellite position, see the globe view (requires WebGL).

§ Visibility from observer

Set your observer location to see the next 7 days of passes ≥ 10°. The values pass through the URL so the page stays shareable.

No JS? Fill the form by hand. The geolocation button needs JavaScript.